Date String (YYYY-MM-DD hh:mm:ss) UTC,Instrument flags,absolute air pressure of the measurement (hPa),sample flow rate (lpm),inlet stack bypass flow (lpm),air temperature of the measurement (°C),ambient temperature measured by the external sensor (°C),aerosol sample conditioner tube jacket temperature (°C),OPC LED temperature (°C),internal box temperature (°C),relative humidity of the measurement (%),span deviation,mass concentration of particles derived from Lorenz-Mie calculation of OPC scattering (μg/m³),mass concentration of particles derived from Lorenz-Mie calculation of OPC scattering (μg/m³),mass concentration of particles derived from Lorenz-Mie calculation of OPC scattering (μg/m³)
DateTimeUTC,F1_M11,P_M11,Q1_M11,Q2_M11,T1_M11,T2_M11,T3_M11,T4_M11,T5_M11,U1_M11,ZSPAN_M11,X0_M11,X2_M11,X1_M11
2023-07-27 00:00:00,SystemResetWarning,0834.0,5.01,000.00,030.2,025.7,000.0,038.2,030.5,32.7,0000.0,0009.94,0004.61,0003.54
2023-07-27 00:01:00,SystemResetWarning,0834.0,5.00,000.00,030.2,026.2,000.0,038.2,030.6,33.3,0000.0,0010.15,0004.65,0003.57
2023-07-27 00:02:00,SystemResetWarning,0834.0,5.00,000.00,030.1,026.6,000.0,038.2,030.7,33.4,0000.0,0010.43,0004.76,0003.61
2023-07-27 00:03:00,SystemResetWarning,0834.0,5.01,000.00,030.1,027.0,000.0,038.3,030.8,32.9,0000.0,0010.21,0004.74,0003.65
2023-07-27 00:04:00,SystemResetWarning,0834.0,4.99,000.00,030.2,027.3,000.0,038.3,030.9,32.5,0000.0,0010.27,0004.79,0003.69
2023-07-27 00:05:00,SystemResetWarning,0833.9,4.99,000.00,030.2,027.6,000.0,038.3,031.0,32.7,0000.0,0010.29,0004.84,0003.72
2023-07-27 00:06:00,SystemResetWarning,0834.0,4.99,000.00,030.2,026.8,000.0,038.2,030.9,32.3,0000.0,0010.28,0004.85,0003.74
2023-07-27 00:07:00,SystemResetWarning,0834.0,5.00,000.00,030.1,025.7,000.0,038.1,030.7,32.7,0000.0,0010.23,0004.88,0003.76
2023-07-27 00:08:00,SystemResetWarning,0834.0,5.00,000.00,030.1,025.6,000.0,038.0,030.6,31.9,0000.0,0009.76,0004.89,0003.76
2023-07-27 00:09:00,SystemResetWarning,0834.0,5.01,000.00,029.9,025.8,000.0,038.0,030.5,31.9,0000.0,0010.35,0004.88,0003.75
2023-07-27 00:10:00,SystemResetWarning,0834.0,4.99,000.00,029.9,026.2,000.0,038.1,030.6,32.4,0000.0,0010.87,0004.83,0003.72
2023-07-27 00:11:00,SystemResetWarning,0834.0,4.99,000.00,029.9,026.6,000.0,038.1,030.7,32.5,0000.0,0010.88,0004.78,0003.70
2023-07-27 00:12:00,SystemResetWarning,0834.0,5.00,000.00,029.9,027.0,000.0,038.1,030.8,31.8,0000.0,0010.82,0004.77,0003.70
2023-07-27 00:13:00,SystemResetWarning,0834.0,5.02,000.00,029.9,027.3,000.0,038.1,030.9,31.5,0000.0,0010.73,0004.72,0003.68
2023-07-27 00:14:00,SystemResetWarning,0834.0,4.99,000.00,029.9,027.5,000.0,038.1,031.0,31.6,0000.0,0010.70,0004.67,0003.64
2023-07-27 00:15:00,SystemResetWarning,0834.0,4.98,000.00,029.9,026.9,000.0,038.1,030.9,32.3,0000.0,0010.81,0004.67,0003.60
2023-07-27 00:16:00,SystemResetWarning,0833.9,5.01,000.00,029.8,025.4,000.0,037.9,030.6,32.0,0000.0,0010.65,0004.62,0003.56
2023-07-27 00:17:00,SystemResetWarning,0833.8,5.00,000.00,029.7,024.8,000.0,037.8,030.4,31.7,0000.0,0010.83,0004.58,0003.54
2023-07-27 00:18:00,SystemResetWarning,0833.8,5.01,000.00,029.6,024.9,000.0,037.8,030.2,32.2,0000.0,0010.82,0004.53,0003.51
2023-07-27 00:19:00,SystemResetWarning,0833.9,5.01,000.00,029.5,025.3,000.0,037.8,030.2,32.8,0000.0,0010.80,0004.49,0003.49
2023-07-27 00:20:00,SystemResetWarning,0833.8,4.99,000.00,029.5,025.8,000.0,037.8,030.4,32.9,0000.0,0010.38,0004.43,0003.47
2023-07-27 00:21:00,SystemResetWarning,0833.9,5.00,000.00,029.5,026.2,000.0,037.8,030.5,32.5,0000.0,0009.73,0004.43,0003.45
2023-07-27 00:22:00,SystemResetWarning,0833.8,4.99,000.00,029.5,026.6,000.0,037.8,030.6,32.5,0000.0,0009.65,0004.43,0003.44
2023-07-27 00:23:00,SystemResetWarning,0833.8,5.00,000.00,029.5,027.0,000.0,037.8,030.7,32.2,0000.0,0009.68,0004.35,0003.40
2023-07-27 00:24:00,SystemResetWarning,0833.8,5.00,000.00,029.5,027.3,000.0,037.8,030.8,32.9,0000.0,0009.53,0004.29,0003.38
2023-07-27 00:25:00,SystemResetWarning,0833.8,5.00,000.00,029.5,027.6,000.0,037.9,030.8,33.3,0000.0,0009.64,0004.28,0003.36
2023-07-27 00:26:00,SystemResetWarning,0833.8,4.99,000.00,029.6,027.7,000.0,037.9,030.9,33.4,0000.0,0009.44,0004.22,0003.34
2023-07-27 00:27:00,SystemResetWarning,0833.8,4.98,000.00,029.6,026.6,000.0,037.7,030.8,33.4,0000.0,0009.29,0004.16,0003.32
2023-07-27 00:28:00,SystemResetWarning,0833.8,5.01,000.00,029.5,025.2,000.0,037.6,030.6,33.2,0000.0,0009.01,0004.14,0003.30
2023-07-27 00:29:00,SystemResetWarning,0833.8,5.00,000.00,029.4,024.8,000.0,037.6,030.4,33.9,0000.0,0008.91,0004.15,0003.28
2023-07-27 00:30:00,SystemResetWarning,0833.8,5.00,000.00,029.3,025.0,000.0,037.6,030.2,33.5,0000.0,0009.40,0004.12,0003.27
2023-07-27 00:31:00,SystemResetWarning,0833.8,5.00,000.00,029.2,025.5,000.0,037.6,030.3,33.2,0000.0,0009.53,0004.10,0003.26
2023-07-27 00:32:00,SystemResetWarning,0833.8,5.00,000.00,029.2,026.0,000.0,037.6,030.4,33.2,0000.0,0009.45,0004.10,0003.24
2023-07-27 00:33:00,SystemResetWarning,0833.8,5.00,000.00,029.2,026.4,000.0,037.6,030.5,32.9,0000.0,0009.40,0004.05,0003.23
2023-07-27 00:34:00,SystemResetWarning,0833.8,5.00,000.00,029.3,026.8,000.0,037.6,030.6,32.8,0000.0,0010.05,0004.11,0003.23
2023-07-27 00:35:00,SystemResetWarning,0833.8,5.00,000.00,029.3,027.1,000.0,037.6,030.7,31.8,0000.0,0010.72,0004.15,0003.23
2023-07-27 00:36:00,SystemResetWarning,0833.8,5.00,000.00,029.3,027.4,000.0,037.7,030.7,32.1,0000.0,0011.14,0004.21,0003.22
2023-07-27 00:37:00,SystemResetWarning,0833.8,4.99,000.00,029.3,027.4,000.0,037.6,030.8,31.9,0000.0,0011.10,0004.17,0003.21
2023-07-27 00:38:00,SystemResetWarning,0833.8,4.99,000.00,029.3,025.9,000.0,037.5,030.6,31.5,0000.0,0011.28,0004.21,0003.21
2023-07-27 00:39:00,SystemResetWarning,0833.8,5.01,000.00,029.2,024.8,000.0,037.4,030.4,31.5,0000.0,0011.60,0004.28,0003.22
2023-07-27 00:40:00,SystemResetWarning,0833.7,5.01,000.00,029.2,024.8,000.0,037.4,030.2,31.4,0000.0,0011.78,0004.27,0003.22
2023-07-27 00:41:00,SystemResetWarning,0833.7,4.99,000.00,029.0,025.1,000.0,037.4,030.1,31.4,0000.0,0011.29,0004.25,0003.22
2023-07-27 00:42:00,SystemResetWarning,0833.7,5.00,000.00,029.0,025.6,000.0,037.4,030.2,31.9,0000.0,0010.85,0004.28,0003.24
2023-07-27 00:43:00,SystemResetWarning,0833.7,5.00,000.00,029.0,026.0,000.0,037.4,030.3,32.5,0000.0,0010.87,0004.30,0003.25
2023-07-27 00:44:00,SystemResetWarning,0833.7,5.00,000.00,029.0,026.5,000.0,037.4,030.4,32.6,0000.0,0010.88,0004.34,0003.26
2023-07-27 00:45:00,SystemResetWarning,0833.7,5.00,000.00,029.0,026.9,000.0,037.4,030.5,31.2,0000.0,0010.57,0004.29,0003.25
2023-07-27 00:46:00,SystemResetWarning,0833.7,4.99,000.00,029.1,027.2,000.0,037.5,030.6,30.0,0000.0,0010.10,0004.24,0003.25
2023-07-27 00:47:00,SystemResetWarning,0833.6,5.00,000.00,029.1,027.5,000.0,037.5,030.7,30.0,0000.0,0009.66,0004.20,0003.27
2023-07-27 00:48:00,SystemResetWarning,0833.7,5.00,000.00,029.2,027.6,000.0,037.5,030.7,30.3,0000.0,0009.73,0004.24,0003.30
2023-07-27 00:49:00,SystemResetWarning,0833.7,4.99,000.00,029.2,026.3,000.0,037.4,030.5,30.7,0000.0,0009.73,0004.24,0003.31
2023-07-27 00:50:00,SystemResetWarning,0833.6,5.01,000.00,029.1,025.0,000.0,037.3,030.3,30.9,0000.0,0009.53,0004.21,0003.31
2023-07-27 00:51:00,SystemResetWarning,0833.7,5.01,000.00,029.0,024.8,000.0,037.2,030.2,30.1,0000.0,0009.23,0004.20,0003.31
2023-07-27 00:52:00,SystemResetWarning,0833.6,5.00,000.00,028.9,025.1,000.0,037.2,030.0,30.7,0000.0,0009.25,0004.21,0003.32
2023-07-27 00:53:00,SystemResetWarning,0833.6,5.00,000.00,028.9,025.5,000.0,037.3,030.1,31.0,0000.0,0009.42,0004.24,0003.33
2023-07-27 00:54:00,SystemResetWarning,0833.7,4.99,000.00,028.9,026.0,000.0,037.3,030.2,31.0,0000.0,0009.44,0004.23,0003.33
2023-07-27 00:55:00,SystemResetWarning,0833.7,5.00,000.00,028.9,026.5,000.0,037.3,030.3,30.1,0000.0,0009.49,0004.23,0003.34
2023-07-27 00:56:00,SystemResetWarning,0833.7,5.00,000.00,028.9,026.8,000.0,037.3,030.4,30.0,0000.0,0009.43,0004.23,0003.35
2023-07-27 00:57:00,SystemResetWarning,0833.7,5.00,000.00,029.0,027.2,000.0,037.3,030.5,30.3,0000.0,0009.43,0004.25,0003.36
2023-07-27 00:58:00,SystemResetWarning,0833.7,5.00,000.00,029.0,027.5,000.0,037.3,030.6,30.5,0000.0,0009.34,0004.26,0003.36
2023-07-27 00:59:00,SystemResetWarning,0833.6,4.99,000.00,029.0,027.3,000.0,037.3,030.7,30.8,0000.0,0009.30,0004.30,0003.36
